Avoca, PA
on Saturday, February 2, 2013

Saturday
Previous Day Next Day
Daily Summary
 ActualAverageRecord
Temperature
Mean Temperature °F 27°F  
Max Temperature 20°F 34°F 55°F (1983)
Min Temperature 12°F 19°F -11°F (1961)
Degree Days
Heating Degree Days 49 38  
Month to date heating degree days 92 77  
Since 1 July heating degree days 3309 3668  
Cooling Degree Days 0 0  
Month to date cooling degree days 0 0  
Year to date cooling degree days 0 0  
Moisture
Dew Point 9°F   
Average Humidity 69    
Maximum Humidity 84    
Minimum Humidity 54    
Precipitation
Precipitation 0.01 in 0.08 in 1.74 in (1981)
Month to date precipitation 0.01 0.16  
Year to date precipitation 2.03 2.53  
Wind
Wind Speed 7 mph   
Max Wind Speed 16 mph   
Max Gust Speed 24 mph   
Visibility 7 miles   
Events Snow   

Key: T is trace of precipitation, MM is missing value
Source: NWS Daily Summary
Time(EST)TemperatureDew PointHumidity Pressure Visibility Wind DirectionWind SpeedGust SpeedPrecipitationEvents Conditions
12:54 AM 16.0°F 6.1°F 65% 30.23 in 10.0 miles WSW 9.2 mph - N/A   Clear
1:54 AM 15.1°F 5.0°F 64% 30.24 in 10.0 miles SW 5.8 mph - N/A   Clear
2:54 AM 14.0°F 3.9°F 64% 30.25 in 10.0 miles SW 8.1 mph - N/A   Clear
3:54 AM 12.9°F 3.9°F 67% 30.25 in 10.0 miles SSW 6.9 mph - N/A   Clear
4:54 AM 12.9°F 3.0°F 65% 30.25 in 10.0 miles SW 5.8 mph - N/A   Clear
5:54 AM 12.9°F 3.9°F 67% 30.25 in 10.0 miles SW 6.9 mph - N/A   Mostly Cloudy
6:16 AM 12.2°F 5.0°F 73% 30.20 in 10.0 miles Variable 5.8 mph - N/A   Scattered Clouds
6:54 AM 12.2°F 3.2°F 67% 30.20 in 10.0 miles SW 5.8 mph - N/A   Clear
7:54 AM 12.0°F 3.0°F 67% 30.25 in 10.0 miles Variable 5.8 mph - N/A   Clear
8:54 AM 14.0°F 3.0°F 62% 30.24 in 10.0 miles SSW 8.1 mph 19.6 mph N/A   Clear
9:54 AM 16.0°F 5.0°F 62% 30.22 in 10.0 miles SSW 9.2 mph 17.3 mph N/A   Partly Cloudy
10:54 AM 16.0°F 3.9°F 59% 30.20 in 10.0 miles SW 9.2 mph 18.4 mph N/A   Overcast
11:54 AM 17.1°F 3.9°F 56% 30.17 in 10.0 miles SW 9.2 mph - N/A   Overcast
12:54 PM 18.0°F 3.9°F 54% 30.14 in 7.0 miles WSW 11.5 mph 20.7 mph N/A   Overcast
1:54 PM 19.0°F 6.1°F 57% 30.10 in 10.0 miles WSW 9.2 mph - 0.00 in   Overcast
2:54 PM 19.0°F 7.0°F 59% 30.08 in 10.0 miles Variable 3.5 mph - N/A   Overcast
3:54 PM 19.9°F 8.1°F 60% 30.08 in 9.0 miles SSW 9.2 mph - N/A   Overcast
4:16 PM 19.4°F 10.4°F 68% 30.03 in 7.0 miles SSW 6.9 mph - N/A   Overcast
4:50 PM 19.4°F 8.6°F 63% 30.02 in 10.0 miles SSW 8.1 mph - N/A   Overcast
4:54 PM 19.0°F 9.0°F 65% 30.06 in 10.0 miles Variable 6.9 mph - N/A   Overcast
5:54 PM 19.0°F 9.0°F 65% 30.05 in 10.0 miles SSW 5.8 mph - N/A   Overcast
6:54 PM 18.0°F 12.9°F 81% 30.06 in 4.0 miles SW 6.9 mph - N/A   Haze
7:11 PM 17.6°F 14.0°F 86% 30.01 in 2.0 miles SW 5.8 mph - 0.00 in Snow Light Snow
7:20 PM 17.6°F 14.0°F 86% 30.01 in 1.8 miles SW 5.8 mph - 0.00 in Snow Light Snow
7:26 PM 17.6°F 14.0°F 86% 30.01 in 2.0 miles SW 6.9 mph - 0.00 in Snow Light Snow
7:40 PM 19.4°F 15.8°F 86% 30.01 in 4.0 miles SW 6.9 mph - 0.01 in Snow Light Snow
7:54 PM 19.0°F 14.0°F 81% 30.06 in 4.0 miles SW 5.8 mph - 0.01 in Snow Light Snow
8:17 PM 19.4°F 15.8°F 86% 30.01 in 2.5 miles WSW 5.8 mph - 0.00 in Snow Light Snow
8:54 PM 19.0°F 16.0°F 88% 30.04 in 3.0 miles WSW 3.5 mph - 0.00 in Snow Light Snow
9:23 PM 19.4°F 15.8°F 86% 30.00 in 2.5 miles Calm Calm - 0.00 in Snow Light Snow
9:54 PM 19.0°F 15.1°F 85% 30.04 in 5.0 miles West 3.5 mph - 0.00 in   Overcast
10:49 PM 19.4°F 15.8°F 86% 29.98 in 2.5 miles Calm Calm - 0.00 in Snow Light Snow
10:54 PM 19.0°F 16.0°F 88% 30.02 in 3.0 miles Calm Calm - 0.00 in Snow Light Snow
11:54 PM 19.0°F 16.0°F 88% 30.00 in 6.0 miles Calm Calm - 0.00 in   Overcast
Astronomy
Sunrise:07:12 AM (EST) Moon Rise:No Moon Rise/
Sunset:05:20 PM (EST) Moon Set:10:16 AM (EST)2/2
Moon Phase
Feb. 02 Feb. 03 Feb. 10 Feb. 17 Feb. 25

Copyright © 2014 The Weather Underground, Inc.